Location: Home
(42.5358°N, 72.7383°W)
Time: 12:03:16
(UTC-05:00)

Transit 4A - Pass Details

Date: 01 December 2021
Orbit: 863 x 981 km, 66.8° (Epoch: 26 January)

Event Time Altitude Azimuth Distance (km) Brightness Sun altitude
Rises 02:53:26 0° 336° (NNW) 3,594 - -44.9°
Reaches altitude 10° 02:56:38 10° 352° (N) 2,668 - -44.3°
Maximum altitude 03:01:16 21° 40° (NE) 2,000 - -43.5°
Exits shadow 03:02:17 20° 53° (NE) 2,043 10.0 -43.3°
Drops below altitude 10° 03:05:57 10° 88° (E) 2,711 10.9 -42.7°
Sets 03:09:13 0° 104° (ESE) 3,666 11.7 -42.1°
